When you browse on this site, cookies collect data to enhance your experience and personalize the content and advertising you see.
Visit our Privacy Policy to learn more. By continuing to use the site, you agree to this use of cookies and data.
EN

Hourly Weather Needham

Today, 15 August, Saturday

Time Temperature Precipitation Wind Pressure Humidity
00:00 +21°C° 0 mm 3 mps 758 mmHg 72%
01:00 +20°C° 0 mm 3 mps 758 mmHg 73%
02:00 +20°C° 0 mm 3 mps 758 mmHg 74%
03:00 +20°C° 0 mm 3 mps 757 mmHg 75%
04:00 +20°C° 0 mm 3 mps 757 mmHg 76%
05:00 +20°C° 0 mm 4 mps 758 mmHg 78%
06:00 +21°C° 0 mm 5 mps 758 mmHg 80%
07:00 +21°C° 0 mm 5 mps 758 mmHg 82%
08:00 +21°C° 0 mm 5 mps 759 mmHg 80%
09:00 +21°C° 0 mm 5 mps 759 mmHg 78%
10:00 +21°C° 0 mm 5 mps 759 mmHg 76%
11:00 +21°C° 0 mm 5 mps 759 mmHg 75%
12:00 +22°C° 0 mm 5 mps 759 mmHg 73%
13:00 +22°C° 0 mm 5 mps 759 mmHg 72%
14:00 +22°C° 0 mm 5 mps 759 mmHg 72%
15:00 +21°C° 0 mm 4 mps 758 mmHg 73%
16:00 +21°C° 0 mm 4 mps 758 mmHg 74%
17:00 +21°C° 0 mm 4 mps 759 mmHg 75%
18:00 +21°C° 0 mm 3 mps 759 mmHg 76%
19:00 +20°C° 0 mm 2 mps 759 mmHg 78%
20:00 +20°C° 0 mm 2 mps 759 mmHg 82%
21:00 +19°C° 0 mm 2 mps 760 mmHg 86%
22:00 +18°C° 0 mm 2 mps 760 mmHg 91%
23:00 +18°C° 0 mm 2 mps 760 mmHg 91%

Tomorrow, 16 August, Sunday

Time Temperature Precipitation Wind Pressure Humidity
00:00 +19°C° 0 mm 1 mps 760 mmHg 92%
01:00 +19°C° 0 mm 1 mps 759 mmHg 92%
02:00 +19°C° 0 mm 1 mps 759 mmHg 92%
03:00 +18°C° 0 mm 2 mps 759 mmHg 92%
04:00 +18°C° 0 mm 2 mps 759 mmHg 92%
05:00 +19°C° 0 mm 2 mps 759 mmHg 88%
06:00 +20°C° 0 mm 2 mps 759 mmHg 85%
07:00 +20°C° 0 mm 3 mps 759 mmHg 82%
08:00 +22°C° 0 mm 3 mps 759 mmHg 76%
09:00 +24°C° 0 mm 3 mps 759 mmHg 70%
10:00 +25°C° 0 mm 3 mps 759 mmHg 64%
11:00 +25°C° 0.1 mm 3 mps 759 mmHg 63%
12:00 +25°C° 0.1 mm 4 mps 758 mmHg 62%
13:00 +26°C° 0.1 mm 4 mps 758 mmHg 60%
14:00 +25°C° 0 mm 4 mps 758 mmHg 64%
15:00 +25°C° 0 mm 4 mps 757 mmHg 67%
16:00 +23°C° 0 mm 4 mps 757 mmHg 71%
17:00 +22°C° 0 mm 4 mps 757 mmHg 75%
18:00 +22°C° 0 mm 3 mps 757 mmHg 80%
19:00 +21°C° 0 mm 3 mps 757 mmHg 84%
20:00 +20°C° 0.1 mm 3 mps 757 mmHg 85%
21:00 +20°C° 0.1 mm 3 mps 757 mmHg 85%
22:00 +20°C° 0.1 mm 2 mps 756 mmHg 86%
23:00 +19°C° 0.2 mm 2 mps 756 mmHg 87%

Day after tomorrow, 17 August, Monday

Time Temperature Precipitation Wind Pressure Humidity
00:00 +19°C° 0.2 mm 2 mps 756 mmHg 89%
01:00 +19°C° 0.2 mm 2 mps 756 mmHg 90%
02:00 +19°C° 0.2 mm 3 mps 756 mmHg 90%
03:00 +18°C° 0.2 mm 3 mps 755 mmHg 90%
04:00 +18°C° 0.2 mm 3 mps 755 mmHg 90%
05:00 +18°C° 0.1 mm 3 mps 755 mmHg 89%
06:00 +18°C° 0.1 mm 3 mps 756 mmHg 87%
07:00 +19°C° 0.1 mm 3 mps 756 mmHg 85%
08:00 +19°C° 0 mm 3 mps 756 mmHg 84%
09:00 +19°C° 0 mm 2 mps 756 mmHg 83%
10:00 +19°C° 0 mm 2 mps 756 mmHg 82%
11:00 +21°C° 0 mm 3 mps 756 mmHg 75%
12:00 +22°C° 0 mm 3 mps 756 mmHg 68%
13:00 +24°C° 0 mm 3 mps 756 mmHg 60%
14:00 +24°C° 0 mm 3 mps 755 mmHg 60%
15:00 +24°C° 0 mm 3 mps 755 mmHg 59%
16:00 +24°C° 0 mm 3 mps 754 mmHg 58%
17:00 +23°C° 0 mm 2 mps 755 mmHg 64%
18:00 +20°C° 0 mm 2 mps 755 mmHg 70%
19:00 +19°C° 0 mm 2 mps 755 mmHg 77%
20:00 +19°C° 0 mm 1 mps 755 mmHg 81%
21:00 +19°C° 0 mm 1 mps 755 mmHg 85%
22:00 +18°C° 0 mm 1 mps 755 mmHg 89%
23:00 +18°C° 0 mm 1 mps 755 mmHg 90%

18 August, Tuesday

Time Temperature Precipitation Wind Pressure Humidity
00:00 +18°C° 0 mm 1 mps 754 mmHg 90%
01:00 +18°C° 0 mm 1 mps 754 mmHg 91%
02:00 +18°C° 0.5 mm 1 mps 754 mmHg 91%
03:00 +18°C° 0.5 mm 1 mps 754 mmHg 91%
04:00 +19°C° 0.5 mm 1 mps 754 mmHg 91%
05:00 +19°C° 0.1 mm 1 mps 754 mmHg 90%
06:00 +20°C° 0.1 mm 1 mps 754 mmHg 89%
07:00 +20°C° 0.1 mm 2 mps 754 mmHg 88%
08:00 +23°C° 0 mm 2 mps 754 mmHg 77%
09:00 +25°C° 0 mm 2 mps 754 mmHg 66%
10:00 +27°C° 0 mm 2 mps 754 mmHg 54%
11:00 +28°C° 0 mm 2 mps 754 mmHg 49%
12:00 +30°C° 0 mm 2 mps 754 mmHg 43%
13:00 +31°C° 0 mm 2 mps 754 mmHg 38%
14:00 +30°C° 0 mm 2 mps 754 mmHg 43%
15:00 +29°C° 0 mm 2 mps 753 mmHg 48%
16:00 +28°C° 0 mm 2 mps 753 mmHg 53%
17:00 +27°C° 0 mm 2 mps 754 mmHg 57%
18:00 +25°C° 0 mm 2 mps 754 mmHg 62%
19:00 +24°C° 0 mm 2 mps 754 mmHg 66%
20:00 +23°C° 0 mm 2 mps 754 mmHg 67%
21:00 +21°C° 0 mm 2 mps 755 mmHg 68%
22:00 +21°C° 0 mm 1 mps 755 mmHg 69%
23:00 +21°C° 0 mm 1 mps 755 mmHg 69%

19 August, Wednesday

Time Temperature Precipitation Wind Pressure Humidity
00:00 +20°C° 0 mm 1 mps 755 mmHg 69%
01:00 +20°C° 0 mm 1 mps 754 mmHg 69%
02:00 +20°C° 0 mm 1 mps 755 mmHg 69%
03:00 +19°C° 0 mm 1 mps 755 mmHg 68%
04:00 +19°C° 0 mm 1 mps 755 mmHg 67%
05:00 +20°C° 0 mm 1 mps 755 mmHg 64%
06:00 +21°C° 0 mm 1 mps 755 mmHg 62%
07:00 +21°C° 0 mm 0 mps 756 mmHg 60%
08:00 +25°C° 0 mm 1 mps 756 mmHg 54%
09:00 +27°C° 0 mm 1 mps 756 mmHg 48%
10:00 +30°C° 0 mm 1 mps 756 mmHg 42%
11:00 +30°C° 0 mm 1 mps 756 mmHg 40%
12:00 +31°C° 0 mm 2 mps 756 mmHg 38%
13:00 +31°C° 0 mm 2 mps 756 mmHg 36%
14:00 +30°C° 0 mm 2 mps 755 mmHg 41%
15:00 +29°C° 0 mm 2 mps 755 mmHg 47%
16:00 +28°C° 0 mm 2 mps 755 mmHg 52%
17:00 +27°C° 0 mm 2 mps 755 mmHg 55%
18:00 +25°C° 0 mm 1 mps 755 mmHg 59%
19:00 +24°C° 0 mm 1 mps 756 mmHg 63%
20:00 +24°C° 0 mm 1 mps 756 mmHg 67%
21:00 +23°C° 0 mm 1 mps 756 mmHg 71%
22:00 +22°C° 0 mm 1 mps 756 mmHg 75%
23:00 +22°C° 0 mm 1 mps 756 mmHg 76%

20 August, Thursday

Time Temperature Precipitation Wind Pressure Humidity
00:00 +21°C° 0 mm 1 mps 756 mmHg 78%
01:00 +21°C° 0 mm 1 mps 756 mmHg 79%
02:00 +21°C° 0 mm 1 mps 756 mmHg 81%
03:00 +20°C° 0 mm 1 mps 756 mmHg 83%
04:00 +20°C° 0 mm 1 mps 756 mmHg 84%
05:00 +21°C° 0 mm 1 mps 757 mmHg 80%
06:00 +22°C° 0 mm 1 mps 757 mmHg 76%
07:00 +23°C° 0 mm 1 mps 757 mmHg 72%
08:00 +25°C° 0 mm 1 mps 757 mmHg 65%
09:00 +27°C° 0 mm 2 mps 757 mmHg 58%
10:00 +30°C° 0 mm 2 mps 757 mmHg 50%
11:00 +30°C° 0.1 mm 2 mps 757 mmHg 48%
12:00 +31°C° 0.1 mm 2 mps 757 mmHg 47%
13:00 +31°C° 0.1 mm 2 mps 756 mmHg 45%
14:00 +31°C° 0 mm 3 mps 756 mmHg 47%
15:00 +30°C° 0 mm 3 mps 756 mmHg 50%
16:00 +30°C° 0 mm 3 mps 756 mmHg 53%
17:00 +28°C° 0.1 mm 3 mps 756 mmHg 61%
18:00 +27°C° 0.1 mm 3 mps 756 mmHg 69%
19:00 +25°C° 0.1 mm 3 mps 756 mmHg 78%
20:00 +24°C° 0 mm 3 mps 757 mmHg 81%
21:00 +24°C° 0 mm 2 mps 757 mmHg 84%
22:00 +23°C° 0 mm 2 mps 757 mmHg 87%
23:00 +23°C° 0 mm 2 mps 757 mmHg 87%
Show more